Regional Weather Roundup
Issued by NWS

Home | Current Version | Previous Version | Graphics & Text | Print | Product List | Glossary On
Versions: 1 2 3 4 5 6 7 8 9 10 11 12 13 14 15 16 17 18 19 20 21 22 23 24 25 26 27 28 29 30 31 32 33 34 35 36 37 38 39 40 41 42 43 44 45 46 47 48 49 50
467
ASUS43 KMKX 191000
RWRWI

WISCONSIN REGIONAL WEATHER ROUNDUP
NATIONAL WEATHER SERVICE MILWAUKEE/SULLIVAN WI
400 AM CST THU JAN 19 2017

NOTE: "FAIR" INDICATES FEW OR NO CLOUDS BELOW 12,000 FEET WITH NO
SIGNIFICANT WEATHER AND/OR OBSTRUCTIONS TO VISIBILITY.

WIZ001-002-006>008-014>016-023>028-191100-
NORTHWEST WISCONSIN

CITY           SKY/WX    TMP DP  RH WIND       PRES   REMARKS
SUPERIOR ARPT  CLOUDY    34  33  95 SW5       29.79S FOG     WCI  30
ASHLAND        CLOUDY    29  28  96 SE5       29.82S FOG     WCI  24
HAYWARD        CLOUDY    31  29  92 S3        29.82S FOG
SIREN          CLOUDY    30  30  99 SE5       29.81S FOG     WCI  25
CUMBERLAND     FOG       27  25  93 SE3       29.83S VSB 1/2
RICE LAKE      FOG       28  28  99 SE8       29.86S VSB<1/4 WCI  20
CHETEK         FOG       29  28  99 SE7       29.87S VSB 1/4 WCI  21
LADYSMITH      FOG       31  30  98 S6        29.88S VSB 1/2 WCI  25
EAU CLAIRE     CLOUDY    31  30  96 S7        29.87F FOG     WCI  24
MENOMONIE      FOG       25  25  97 MISG      29.87S VSB 1/4
NEW RICHMOND   CLOUDY    31  31 100 S9        29.83S WCI  23
OSCEOLA        CLOUDY    32  32 100 S8        29.84S WCI  25
$$

WIZ003>005-009-010-017-018-191100-
NORTH CENTRAL WISCONSIN

CITY           SKY/WX    TMP DP  RH WIND       PRES   REMARKS
MANITOWISH WTR NOT AVBL
ARBOR VITAE    CLOUDY    32  30  94 S6        29.84S FOG     WCI  26
WOODRUFF       CLOUDY    32  30  94 S6        29.84S FOG     WCI  26
RHINELANDER    FOG       31  31 100 SW8       29.86S VSB 1/4 WCI  23
EAGLE RIVER    CLOUDY    31  31 100 SW7       29.84S FOG     WCI  25
LAND O LAKES   CLOUDY    32  32 100 CALM      29.85F FOG
PHILLIPS       FOG       30  30 100 S5        29.85S VSB 1/2 WCI  25
TOMAHAWK       CLOUDY    30  29  96 CALM      29.87F FOG
MEDFORD        FOG       30  30  99 S8        29.88S VSB 1/4 WCI  23
MERRILL        FOG       31  31 100 SW6         N/A  VSB 3/4 WCI  25
$$

WIZ029-030-035-036-043>047-191100-
CENTRAL WISCONSIN

CITY           SKY/WX    TMP DP  RH WIND       PRES   REMARKS
WAUSAU         FOG       30  30 100 S9        29.90S VSB 1/2 WCI  22
MOSINEE        SNOW      30  30 100 SW7       29.92S VSB 1/4 WCI  23
MARSHFIELD     FOG       31  31 100 SW6       29.89F VSB 1/4 WCI  25
STEVENS POINT  FOG       30  30 100 SW6       29.94S VSB 1/2 WCI  24
WAUPACA        CLOUDY    34  32  92 CALM      29.96S FOG
WAUTOMA        CLOUDY    33  32  96 SW9       29.96S FOG     WCI  25
WISC RAPIDS    CLOUDY    33  33 100 SW6       29.94F FOG     WCI  28
CAMP DOUGLAS   CLOUDY    34  32  93 S6        29.93F WCI  29
$$

WIZ011>013-019>022-031-037>040-048>050-191100-
NORTHEAST WISCONSIN

CITY           SKY/WX    TMP DP  RH WIND       PRES   REMARKS
ANTIGO         FOG       29  29 100 W10       29.89R VSB 1/2 WCI  20
SHAWANO        CLOUDY    33  31  94 SW8       29.94S FOG     WCI  25
OCONTO         NOT AVBL
STURGEON BAY   CLOUDY    31  30  96 SW9       29.93S FOG     WCI  23
GREEN BAY      CLOUDY    34  33  96 SW8       29.95S FOG     WCI  27
MANITOWOC      NOT AVBL
APPLETON       FOG       32  32 100 SW10G16   29.94S VSB 1   WCI  24
CLINTONVILLE   CLOUDY    32  32 100 SW9       29.94S FOG     WCI  24
OSHKOSH        CLOUDY    33  32  96 SW8       29.96S FOG     WCI  26
$$

WIZ032>034-041-042-053>061-191100-
SOUTHWEST WISCONSIN

CITY           SKY/WX    TMP DP  RH WIND       PRES   REMARKS
LA CROSSE      PTCLDY    36  32  85 S9        29.92F WCI  29
SPARTA         PTCLDY    32  31  98 S5        29.94F FOG     WCI  27
VIROQUA        CLOUDY    33  33 100 SE6       29.93S VSB 1/2 WCI  27
BOSCOBEL       PTCLDY    35  32  88 CALM      29.97S
PRAIRIE DU CHI MOCLDY    33  32  94 CALM      29.97S FOG
PLATTEVILLE    CLOUDY    33  33 100 S3        29.98F VSB 1/4
$$

WIZ056-057-062-063-064-067-068-191100-
SOUTH CENTRAL WISCONSIN

CITY           SKY/WX    TMP DP  RH WIND       PRES   REMARKS
REEDSBURG      NOT AVBL
BARABOO/DELLS  PTCLDY    33  32  96 CALM      29.95F FOG
LONE ROCK      NOT AVBL
MINERAL POINT  FOG       34  34 100 S8        29.97S VSB 1/4 WCI  27
MADISON        CLOUDY    33  33 100 CALM      29.97F FOG
MIDDLETON      CLOUDY    35  35 100 SW8       29.98S WCI  28
WATERTOWN      CLOUDY    33  33 100 SW8       29.98F FOG     WCI  26
MONROE         FOG       32  32 100 S9        29.99R VSB 1/4 WCI  24
JANESVILLE     CLEAR     32  32 100 CALM      30.01R FOG
$$

WIZ051-052-058>065-066-070>072-191100-
SOUTHEAST WISCONSIN

CITY           SKY/WX    TMP DP  RH WIND       PRES   REMARKS
MILWAUKEE      CLOUDY    35  32  88 W6        29.99F FOG     WCI  30
WAUKESHA       CLOUDY    32  32 100 SW6       30.00S FOG     WCI  26
MILWAUKEE/TIMM CLOUDY    34  32  93 SW9       30.00F FOG     WCI  26
RACINE         CLOUDY    33  32  96 SW5       30.01F FOG     WCI  29
KENOSHA        FOG       33  32  96 SW10      30.00F VSB 1   WCI  25
FOND DU LAC    CLOUDY    34  31  88 SW12      29.96F FOG     WCI  25
SHEBOYGAN      CLOUDY    33  31  92 W8        29.96F FOG     WCI  26
WEST BEND      CLOUDY    34  34 100 SW8       29.97F FOG     WCI  27
JUNEAU         FOG       32  32  99 SW10      29.99S VSB 1/4 WCI  24
$$

LSZ147-162-191100-
LAKE SUPERIOR

STATION/POSITION TIME  TEMP    WIND        PRES    WAVE
                       AIR SEA DIR/SP/G            HT/PER
                 (UTC) (F)     (DEG/KT/KT) (MB)    (FT/S)
DEVILS ISLAND    0900   33     160/  6/  7 1010.3S
PORT WING        0940   26      CALM  /  1 1009.5S
SAXON HARBOR     0940   34     180/  3/  7 1009.8S
$$

LMZ867-665-643>646-191100-
LAKE MICHIGAN

STATION/POSITION TIME  TEMP    WIND        PRES    WAVE
                       AIR SEA DIR/SP/G            HT/PER
                 (UTC) (F)     (DEG/KT/KT) (MB)    (FT/S)
NORTHPORT PIER   0940   32     230/  5/ 11 1012.9R
SISTER BAY       0905   33     250/ 12/ 16   N/A
ALGOMA LAKESHORE 0854          230/  5/  6   N/A
KEWAUNEE LAKESHO 0930   32     230/  5/  9 1014.0S
SHEBOYGAN LAKESH 0900   34     230/  9/ 11 1015.4R
PORT WASHINGTON  0940   35     250/  9/ 12 1016.3S
MILWAUKEE LAKESH 0930   35     230/ 10/ 11   N/A
KENOSHA   LAKESH 0900   35     230/  6/  8 1016.6
$$

TC  - TEMPERATURE IN CELSIUS
VSB - VISIBILITY IN STATUTE MILES
WCI - WIND CHILL INDEX
HX  - HEAT INDEX





USA.gov is the U.S. government's official web portal to all federal, state and local government web resources and services.